Location: Berkeley
(37.8716°N, 122.2727°W)
Time: 13:03:01
(UTC-07:00)

N. Korean satellite - Visible Passes

Search period start: 21 September 2021 00:00
Search period end: 01 October 2021 00:00
Orbit: 448 x 498 km, 97.3° (Epoch: 20 September)

Date Brightness Start Highest point End Pass type
(mag) Time Alt. Az. Time Alt. Az. Time Alt. Az.
21 Sep 7.0 06:16:51 10° NNE 06:20:21 65° E 06:23:54 10° S visible
22 Sep 8.9 05:49:31 10° NE 05:52:33 26° E 05:55:36 10° SSE visible
23 Sep 10.0 05:23:18 10° ENE 05:24:39 12° E 05:25:59 10° ESE visible
24 Sep 6.5 06:26:44 10° N 06:30:18 88° WNW 06:33:54 10° SSW visible
25 Sep 8.3 05:59:11 10° NNE 06:02:31 36° E 06:05:51 10° SSE visible
26 Sep 9.7 05:32:21 10° NE 05:34:37 16° E 05:36:54 10° SE visible
27 Sep 6.6 06:36:38 10° N 06:40:10 63° WNW 06:43:45 10° SSW visible
28 Sep 7.6 06:08:54 10° NNE 06:12:25 50° E 06:15:56 10° S visible
29 Sep 9.3 05:41:42 10° NE 05:44:32 21° E 05:47:22 10° SSE visible
